SCP
0 0 0 0 0 0 -0 -0 0 -0 0 0 0 0 0 0 0 0 -0 -0 -1 -0 0 0 -0 -0 -0 -0 -0 -0 -0 -0 -0 -0 -0 -0 -0 -0 -0 -0 0 0 0 0 0 0 0 0 0
0 0 0 0 0 0 -0 0 -0 -0 0 0 -0 0 0 0 -0 -0 0 -0 -0 -0 0 0 -0 -0 -0 -0 -0 -0 -0 -0 -0 -0 -0 -0 -0 -0 -0 0 0 0 0 0 0 0 0 0 0
0 0 0 0 0 0 -0 0 -0 -0 0 0 0 0 0 -0 0 0 -1 -0 -0 -0 0 0 -0 -0 -0 -0 -0 -0 -0 -0 -0 -0 -0 -0 -0 -0 -0 0 0 0 0 0 0 0 0 0 0
0 0 0 0 0 0 0 0 0 -0 0 0 0 0 0 -0 0 -0 -1 -1 -0 -0 0 -0 -0 -0 -0 -0 -0 -0 -0 -0 -0 -0 -0 -0 -0 -0 -0 0 0 -0 -0 -0 -0 -0 -0 -0 0
0 0 0 0 0 0 0 0 0 0 0 0 0 0 -0 -0 -0 -1 -1 -1 -0 -0 -0 -0 -0 -0 -0 -0 -0 -0 -0 -0 -0 -0 -0 -0 -0 -0 -0 -0 -0 -0 -0 -0 -0 -0 0 0 0
0 0 0 0 0 0 0 0 0 0 0 0 0 0 0 0 -1 -1 -0 -0 -0 -0 -0 -0 -0 -0 -0 -0 -0 -0 -0 -0 -0 -0 -0 -0 -0 -0 -0 -0 -0 -0 -0 -0 -0 0 0 0 0
0 0 0 0 0 0 0 0 0 -0 0 0 0 2 0 0 0 -0 -0 -0 -0 -0 -0 0 -0 -0 -0 -0 -0 -0 -0 -0 -0 -0 -0 -0 -0 -0 -0 -0 0 0 0 0 0 0 0 0 0
0 0 0 0 0 0 0 0 0 -0 0 0 0 1 1 0 0 0 0 -0 0 0 0 0 0 0 0 0 -0 -0 -0 -0 -0 -0 -0 -0 -0 -0 -0 0 0 0 0 0 0 0 0 0 0
0 0 0 0 0 0 0 0 0 -0 0 0 0 1 1 0 0 0 0 0 0 0 0 0 0 0 0 0 -0 -0 -0 -0 -0 -0 -0 0 0 0 0 0 0 0 0 0 0 0 0 0 0
0 0 0 0 0 0 0 0 0 -0 0 0 1 1 1 1 0 0 0 1 0 0 0 0 0 0 0 0 0 0 0 0 0 0 0 0 0 0 0 0 0 0 0 0 0 0 0 0 0
0 0 0 0 0 0 0 0 -0 -0 -0 0 0 3 1 1 1 0 0 0 0 0 0 0 0 0 0 0 0 0 0 0 0 0 0 0 0 0 0 0 0 0 0 0 0 0 0 0 0
0 0 0 0 0 0 0 0 -0 -0 0 0 0 1 3 3 2 1 0 0 0 0 0 0 0 0 0 1 0 0 0 0 0 0 0 0 0 0 0 0 0 0 0 0 0 0 0 0 0
0 0 0 0 0 0 0 0 0 -0 0 0 0 0 0 2 3 2 1 1 0 0 0 0 0 0 0 0 0 0 0 0 0 0 0 0 0 0 0 0 0 0 0 0 0 0 0 0 0
0 0 0 0 0 0 0 0 0 0 0 0 0 0 0 0 0 1 2 1 1 0 0 0 0 0 0 0 0 0 0 0 0 0 0 0 0 0 0 0 0 0 0 0 0 0 0 0 0
0 0 0 0 0 0 0 0 0 0 0 0 0 0 0 0 0 0 0 0 2 1 1 1 0 0 1 0 0 0 0 0 0 0 0 0 0 -0 0 0 0 0 0 0 0 0 0 0 0
0 0 0 0 0 0 0 0 0 0 0 0 0 0 0 0 0 0 0 0 1 2 2 2 0 0 0 2 0 0 0 0 0 0 0 0 0 0 0 0 0 0 0 0 0 0 0 0 0
0 0 0 0 0 0 0 0 0 0 0 0 0 0 0 0 0 0 0 0 1 4 3 3 2 1 1 2 1 1 0 1 0 1 0 0 0 0 1 0 0 1 0 1 2 2 1 1 1
0 0 0 0 0 0 0 0 0 0 0 0 0 0 0 0 0 0 0 0 1 4 5 5 4 1 1 3 3 2 1 1 1 1 2 1 1 0 1 1 2 1 1 1 2 2 2 1 2
0 0 0 0 0 0 0 0 0 0 0 0 0 0 0 0 0 0 0 0 1 5 4 0 0 3 4 4 3 2 1 2 2 1 2 2 2 2 2 2 2 2 2 1 1 1 1 2 2
0 0 0 0 0 0 0 0 0 0 0 0 0 0 0 0 0 0 0 0 1 5 6 3 2 3 3 3 3 3 2 3 2 2 2 4 3 3 3 2 2 3 2 2 2 2 2 1 1
0 0 0 0 0 0 0 0 0 0 0 0 0 0 0 0 0 0 0 0 0 9 8 8 6 4 1 3 5 5 4 2 3 3 3 5 4 6 5 4 4 4 3 2 2 2 2 2 1
0 0 0 0 0 0 0 0 0 0 0 0 0 0 0 0 0 0 0 0 0 5 9 10 8 7 7 7 6 4 5 5 3 4 5 6 6 5 5 5 5 4 2 2 1 0 0 1 1
0 0 0 0 0 0 0 0 0 0 0 0 0 0 0 0 0 0 0 0 0 2 7 9 12 11 7 6 7 5 4 6 9 9 8 6 6 5 4 4 3 3 2 1 1 1 1 1 1
0 0 0 0 0 0 0 0 0 0 0 0 0 0 0 0 0 0 0 0 0 1 3 6 8 7 7 6 4 5 3 2 5 6 4 6 4 4 4 3 2 2 2 1 1 1 1 1 1
0 0 0 0 -0 0 0 0 0 0 0 0 0 0 0 0 0 0 0 0 0 0 0 1 4 7 8 5 6 4 2 2 2 2 4 3 3 3 2 2 2 2 2 1 1 1 1 1 1
0 0 0 0 0 0 0 0 0 0 0 0 0 0 0 0 0 0 0 0 0 0 0 0 1 5 8 6 6 4 5 5 3 4 4 4 3 2 2 2 1 1 1 1 1 1 0 0 0
-0 0 0 0 0 0 0 -0 0 0 0 0 0 -0 0 0 0 0 0 0 0 0 0 0 0 1 6 6 5 6 7 6 5 3 3 2 2 2 1 1 0 0 0 0 0 0 0 0 0
0 0 0 0 0 0 0 0 0 0 0 0 0 -0 -0 0 0 0 0 0 0 0 0 0 0 2 7 7 7 7 4 2 1 1 1 1 1 1 0 0 0 0 0 0 0 0 0 0 0
0 0 0 0 0 0 0 -0 0 0 0 0 0 0 -0 1 0 0 0 0 0 0 0 1 5 8 7 6 4 2 2 1 1 1 1 0 0 0 0 0 0 0 0 0 0 0 0 0 0
0 0 0 0 0 0 0 -0 0 0 0 0 -0 -0 5 4 5 4 0 0 0 3 5 6 7 6 4 3 1 1 1 0 0 0 0 0 0 0 0 0 0 0 0 0 0 0 0 0 0
Wind_Speed_500mb
17 10 5 18 5 3 10 19 12 35 9 39 40 18 18 32 17 13 28 46 40 63 66 61 58 56 52 48 43 40 38 36 35 37 39 40 40 40 37 32 30 29 29 29 30 30 30 31 31
14 10 8 10 7 4 13 29 45 25 20 24 76 65 19 9 25 23 43 45 35 64 66 64 59 55 52 48 44 39 37 35 33 34 38 40 38 36 32 29 27 26 26 27 27 28 29 29 31
12 5 4 9 8 15 13 38 23 31 27 19 22 60 36 26 34 57 41 50 47 65 66 63 59 55 52 49 45 40 37 34 32 32 36 38 36 32 29 25 24 25 25 25 26 26 28 28 30
7 8 13 2 19 21 39 37 33 32 13 12 18 22 25 36 66 48 53 47 59 65 65 64 59 55 51 48 45 41 37 34 30 30 32 35 33 29 27 23 22 23 23 24 24 25 27 27 29
11 15 6 10 21 26 39 52 49 32 23 14 8 26 49 57 59 64 62 50 71 69 65 62 58 53 50 48 46 43 38 34 30 28 29 32 32 28 25 22 21 21 20 22 23 25 25 24 23
10 13 4 18 28 33 35 59 49 36 43 34 27 49 22 53 69 73 58 48 72 70 67 61 56 52 50 49 47 45 40 36 30 26 26 29 31 28 24 21 19 19 18 20 22 23 22 19 17
9 6 12 18 25 24 34 64 31 34 28 3 37 19 51 78 77 67 48 47 53 64 69 64 59 53 51 50 49 47 43 38 32 27 24 26 29 27 23 20 19 18 18 19 20 21 21 18 16
19 5 13 19 26 32 42 56 64 48 45 32 10 14 44 77 73 64 56 54 40 52 66 66 61 57 56 54 51 49 45 40 35 29 25 25 27 29 26 23 21 20 19 19 19 19 19 19 19
34 9 21 26 30 24 42 21 69 48 21 6 12 48 80 80 77 67 72 58 52 49 62 64 64 61 58 57 56 52 48 43 40 36 33 32 32 34 32 27 23 20 18 17 17 18 18 20 22
19 14 38 25 24 22 36 45 58 26 30 15 48 67 81 81 76 78 79 70 62 54 66 69 66 63 61 60 59 58 54 50 45 41 38 34 33 33 33 28 24 22 21 19 19 19 20 21 22
21 40 35 43 51 63 49 55 65 33 13 24 35 67 73 78 75 78 77 69 64 55 56 71 68 63 61 62 60 60 56 52 47 43 39 36 34 34 35 33 30 26 22 21 21 20 21 21 21
36 47 60 53 64 64 36 49 41 27 36 27 40 50 61 69 72 77 77 78 68 60 50 66 68 66 62 58 59 56 54 51 47 43 41 40 38 37 34 36 30 22 15 19 26 25 20 19 12
37 37 60 60 74 79 65 44 47 36 55 44 19 13 66 66 64 67 68 76 75 66 56 51 61 61 59 51 53 52 50 47 42 41 40 41 41 38 33 23 25 21 16 12 11 9 12 12 15
30 42 45 60 69 66 51 47 38 64 60 53 23 9 36 60 60 56 56 67 81 76 67 60 52 52 60 52 44 48 48 43 42 39 38 40 40 38 33 28 25 27 24 19 20 24 25 21 21
55 38 36 50 40 42 38 34 40 65 58 51 45 21 33 31 30 46 44 43 55 80 80 66 57 47 56 57 48 36 46 40 36 37 34 33 38 42 39 39 36 36 37 30 29 18 12 17 18
32 28 38 25 36 44 22 53 44 60 56 53 52 49 33 45 44 40 35 36 38 79 86 59 56 51 52 47 44 43 40 39 32 27 28 26 27 39 44 44 41 30 30 39 42 37 41 43 44
18 35 33 30 32 22 27 57 34 69 56 46 52 54 40 39 41 55 52 38 40 73 85 89 85 67 44 54 41 47 44 47 41 32 29 27 28 25 39 43 40 33 27 30 37 39 42 43 43
19 24 28 42 34 35 29 53 38 49 51 50 53 60 54 54 56 49 53 51 38 58 94 99 81 63 51 74 68 53 55 51 50 45 41 37 37 35 31 39 41 44 40 35 42 45 44 46 48
35 35 39 40 33 44 36 45 41 39 55 45 50 57 52 73 63 68 60 64 61 55 95 101 82 58 66 72 66 72 67 63 55 57 47 45 43 39 36 33 34 41 40 44 52 54 59 64 65
44 46 45 41 39 31 31 51 40 35 39 66 55 59 62 64 75 77 79 73 82 72 83 95 96 90 66 74 81 101 80 72 65 57 57 46 46 45 39 35 32 34 45 51 46 44 37 45 49
41 38 34 40 36 41 34 40 27 22 48 67 70 76 69 77 86 91 88 79 84 77 75 82 94 86 74 77 75 84 85 71 59 59 61 57 50 48 46 42 40 39 43 47 46 48 46 50 54
42 37 42 39 29 27 21 29 31 15 31 33 65 68 72 79 61 92 96 89 72 89 75 94 80 78 83 82 73 66 76 64 63 58 51 55 50 50 46 43 39 40 47 48 48 49 41 36 46
31 26 22 27 27 28 32 20 20 12 36 28 40 53 76 82 80 63 69 70 86 89 95 85 86 82 79 75 73 71 69 66 56 55 60 59 61 54 52 49 46 46 47 39 42 39 35 37 36
33 13 17 22 21 22 31 27 31 26 33 34 27 42 74 82 80 77 79 77 47 92 98 95 92 86 84 79 72 72 64 59 59 53 58 54 46 44 42 41 43 36 32 27 26 30 31 29 31
44 18 9 6 9 20 28 30 26 19 31 35 32 52 67 73 84 91 86 82 56 95 108 103 96 88 88 79 71 65 62 69 64 57 56 46 41 37 33 34 33 30 23 22 23 26 24 24 27
6 15 17 11 11 20 31 32 26 40 36 45 59 65 83 75 78 97 98 83 67 80 97 100 93 87 82 75 76 68 58 68 54 46 36 39 35 33 35 35 29 24 20 20 17 17 20 25 28
9 11 13 10 12 8 8 44 31 41 43 38 42 62 61 49 87 89 104 82 76 72 96 99 95 81 84 81 72 73 62 53 47 46 44 42 40 40 35 31 27 23 24 20 22 27 20 11 15
20 6 10 5 10 9 15 20 21 2 15 29 45 44 66 79 91 92 91 90 83 75 85 98 92 87 81 73 65 64 60 53 56 53 47 41 39 34 33 27 21 23 21 15 10 4 1 4 5
7 9 11 5 7 9 15 20 12 8 11 24 45 59 44 33 68 87 95 93 86 81 77 100 96 84 73 68 65 68 66 65 55 53 48 43 38 30 25 20 16 12 8 7 7 10 10 16 19
6 7 9 8 12 11 10 14 5 13 12 29 42 41 47 42 41 40 56 81 86 88 87 93 91 83 74 71 74 75 69 64 64 56 50 45 44 38 32 27 20 12 7 9 13 16 19 22 24
Wind_Direction_500mb
266 227 301 326 34 118 259 259 250 274 256 184 217 92 133 109 147 230 140 187 176 160 160 162 160 155 151 149 145 137 130 125 120 124 126 128 131 131 129 126 122 121 121 121 124 127 129 127 125
262 249 260 250 139 263 268 253 257 267 177 150 106 114 88 115 155 173 165 187 177 162 162 163 162 158 155 153 151 145 138 131 123 124 129 131 133 134 131 128 126 124 123 125 130 133 134 131 127
253 255 251 162 206 219 248 262 291 307 156 174 101 113 139 160 155 150 197 171 174 165 162 163 163 160 159 157 156 153 146 138 129 127 133 135 135 134 134 132 128 126 127 131 137 139 138 135 130
260 236 251 150 242 252 235 262 270 285 253 156 96 98 119 140 148 188 188 180 172 166 164 165 164 163 163 161 161 160 154 147 138 132 136 142 140 138 138 136 131 129 131 135 140 141 140 139 135
253 261 224 214 242 256 266 267 282 296 292 131 148 138 138 141 163 176 174 181 173 165 166 166 165 166 165 165 167 165 161 157 149 140 141 149 149 145 145 143 137 134 134 137 143 147 147 144 142
275 227 230 223 246 260 264 268 274 271 281 185 135 119 145 153 156 164 173 175 173 163 166 167 166 168 167 168 170 169 167 165 160 152 148 155 160 158 155 151 147 144 142 143 151 157 160 161 161
210 311 226 232 251 262 258 266 259 266 276 232 158 120 141 149 159 165 168 165 166 166 166 168 168 169 169 170 171 172 172 170 170 165 159 163 169 170 166 164 161 161 163 162 167 177 186 193 198
241 236 261 257 249 256 269 278 279 293 277 198 168 144 156 155 159 155 157 173 164 167 172 169 170 172 172 171 172 172 174 175 176 175 172 171 176 181 180 180 178 178 182 186 190 197 206 216 224
236 231 246 237 244 255 276 287 285 303 329 31 99 150 156 153 157 152 163 171 174 177 180 176 174 174 176 174 173 176 179 182 183 184 184 185 185 189 191 191 191 194 198 204 211 219 227 234 242
203 224 238 250 255 258 270 277 279 297 300 258 109 126 143 154 160 160 166 172 181 183 186 183 180 178 178 178 179 179 183 188 191 193 194 192 191 196 199 201 202 207 212 217 226 233 241 249 257
222 233 245 254 250 258 265 277 284 301 310 229 149 143 153 161 166 166 170 178 191 184 182 185 184 183 183 184 184 184 187 190 195 199 200 198 198 198 202 209 212 218 229 238 245 251 258 265 271
245 239 240 255 260 269 269 288 293 304 274 262 220 173 168 169 173 174 176 180 191 194 194 189 188 187 188 186 190 190 191 193 198 200 201 202 204 199 204 212 217 220 247 262 265 264 280 260 273
258 241 250 248 248 258 271 264 269 291 283 274 218 264 182 181 179 184 184 186 192 196 197 195 191 188 190 189 193 195 196 199 202 204 201 204 206 207 193 212 225 225 241 262 312 281 290 297 276
272 270 259 245 247 245 247 260 269 274 274 264 261 196 165 181 180 191 185 194 189 195 203 200 193 191 195 194 196 205 201 202 204 207 207 206 209 208 204 210 231 232 245 253 270 290 291 283 272
259 271 275 256 265 254 259 255 242 252 265 267 249 216 195 202 184 191 189 198 196 194 193 194 196 195 201 197 205 208 214 202 201 203 199 207 211 206 202 213 223 229 243 257 269 265 262 270 255
281 270 254 255 254 259 248 250 249 254 260 255 254 254 222 200 218 223 223 222 200 197 182 196 210 189 195 197 205 216 214 205 208 210 199 193 204 211 211 211 226 230 230 231 239 250 254 261 263
253 255 261 265 245 247 228 256 241 239 241 244 249 248 242 230 214 214 217 221 238 201 192 186 194 183 191 203 207 214 214 208 216 223 225 217 225 228 225 221 225 228 234 237 243 247 249 250 255
238 253 253 256 263 234 243 257 246 218 236 246 250 246 247 244 237 233 225 222 239 215 192 185 199 220 210 208 205 206 211 211 211 213 225 232 234 234 240 241 232 221 227 239 242 243 243 249 250
263 265 254 253 242 243 248 254 243 222 219 233 231 230 238 235 238 242 240 235 238 212 196 199 201 213 202 204 212 207 208 206 209 212 214 231 238 240 241 240 247 233 227 244 248 255 260 263 263
235 245 258 272 273 278 268 253 249 234 223 216 218 221 233 239 235 236 238 234 228 224 201 199 207 204 203 207 212 213 210 208 211 212 214 220 236 244 248 249 244 244 242 246 258 266 268 276 270
242 246 249 245 254 268 266 274 272 264 229 211 212 213 223 226 234 234 225 223 225 215 195 198 189 208 208 197 206 209 215 218 218 219 217 218 227 238 241 246 258 263 253 249 249 250 249 262 272
247 238 249 262 260 247 251 262 262 249 278 246 205 201 215 222 239 220 218 224 228 217 196 189 190 196 204 206 209 205 204 204 212 218 218 216 225 229 236 240 258 259 261 253 253 276 272 273 274
281 291 332 309 293 293 249 254 264 252 233 262 197 206 214 221 227 218 211 221 233 219 209 201 194 197 205 211 214 212 210 208 207 212 214 220 220 224 232 238 248 254 260 254 258 263 274 270 271
269 271 313 325 297 273 251 234 251 243 247 268 252 224 209 220 218 217 224 228 243 217 208 206 202 203 203 206 209 211 204 207 208 201 205 211 216 225 231 243 251 246 253 253 253 256 259 270 273
279 215 210 285 268 259 256 240 228 220 225 215 238 232 230 218 214 214 217 216 228 211 203 200 200 205 208 205 209 208 204 214 216 215 221 229 233 224 228 235 237 232 229 233 249 255 264 277 282
232 325 232 212 222 264 259 260 234 246 244 239 238 238 236 227 213 203 207 215 215 209 200 197 198 200 206 205 205 203 208 216 218 216 201 203 198 195 210 213 216 227 237 259 257 264 270 266 276
307 255 297 179 194 258 277 270 240 232 236 237 255 257 263 253 216 203 205 207 209 205 200 197 196 201 205 207 210 201 205 204 192 188 188 183 181 191 204 208 211 223 247 243 256 273 283 298 295
200 151 313 4 182 226 235 270 247 290 318 266 240 249 253 263 208 199 202 205 212 207 201 198 197 201 199 196 195 189 187 181 184 189 184 185 186 191 198 198 210 230 245 248 243 212 352 283 296
162 151 180 192 161 204 261 253 190 261 313 317 294 235 239 208 184 193 199 204 204 209 203 195 191 188 178 177 181 186 186 189 185 180 182 175 172 173 166 160 160 158 137 138 185 218 225 270 278
164 323 204 179 184 208 245 270 353 295 347 315 274 238 115 100 137 149 180 196 195 189 170 165 168 173 172 175 173 170 170 175 174 173 162 157 150 148 147 151 159 168 202 244 258 277 287 285 289
Wind_Speed_850mb
17 10 5 18 5 3 10 19 12 35 9 39 40 18 18 32 17 13 28 46 40 63 66 61 58 56 52 48 43 40 38 36 35 37 39 40 40 40 37 32 30 29 29 29 30 30 30 31 31
14 10 8 10 7 4 13 29 45 25 20 24 76 65 19 9 25 23 43 45 35 64 66 64 59 55 52 48 44 39 37 35 33 34 38 40 38 36 32 29 27 26 26 27 27 28 29 29 31
12 5 4 9 8 15 13 38 23 31 27 19 22 60 36 26 34 57 41 50 47 65 66 63 59 55 52 49 45 40 37 34 32 32 36 38 36 32 29 25 24 25 25 25 26 26 28 28 30
7 8 13 2 19 21 39 37 33 32 13 12 18 22 25 36 66 48 53 47 59 65 65 64 59 55 51 48 45 41 37 34 30 30 32 35 33 29 27 23 22 23 23 24 24 25 27 27 29
11 15 6 10 21 26 39 52 49 32 23 14 8 26 49 57 59 64 62 50 71 69 65 62 58 53 50 48 46 43 38 34 30 28 29 32 32 28 25 22 21 21 20 22 23 25 25 24 23
10 13 4 18 28 33 35 59 49 36 43 34 27 49 22 53 69 73 58 48 72 70 67 61 56 52 50 49 47 45 40 36 30 26 26 29 31 28 24 21 19 19 18 20 22 23 22 19 17
9 6 12 18 25 24 34 64 31 34 28 3 37 19 51 78 77 67 48 47 53 64 69 64 59 53 51 50 49 47 43 38 32 27 24 26 29 27 23 20 19 18 18 19 20 21 21 18 16
19 5 13 19 26 32 42 56 64 48 45 32 10 14 44 77 73 64 56 54 40 52 66 66 61 57 56 54 51 49 45 40 35 29 25 25 27 29 26 23 21 20 19 19 19 19 19 19 19
34 9 21 26 30 24 42 21 69 48 21 6 12 48 80 80 77 67 72 58 52 49 62 64 64 61 58 57 56 52 48 43 40 36 33 32 32 34 32 27 23 20 18 17 17 18 18 20 22
19 14 38 25 24 22 36 45 58 26 30 15 48 67 81 81 76 78 79 70 62 54 66 69 66 63 61 60 59 58 54 50 45 41 38 34 33 33 33 28 24 22 21 19 19 19 20 21 22
21 40 35 43 51 63 49 55 65 33 13 24 35 67 73 78 75 78 77 69 64 55 56 71 68 63 61 62 60 60 56 52 47 43 39 36 34 34 35 33 30 26 22 21 21 20 21 21 21
36 47 60 53 64 64 36 49 41 27 36 27 40 50 61 69 72 77 77 78 68 60 50 66 68 66 62 58 59 56 54 51 47 43 41 40 38 37 34 36 30 22 15 19 26 25 20 19 12
37 37 60 60 74 79 65 44 47 36 55 44 19 13 66 66 64 67 68 76 75 66 56 51 61 61 59 51 53 52 50 47 42 41 40 41 41 38 33 23 25 21 16 12 11 9 12 12 15
30 42 45 60 69 66 51 47 38 64 60 53 23 9 36 60 60 56 56 67 81 76 67 60 52 52 60 52 44 48 48 43 42 39 38 40 40 38 33 28 25 27 24 19 20 24 25 21 21
55 38 36 50 40 42 38 34 40 65 58 51 45 21 33 31 30 46 44 43 55 80 80 66 57 47 56 57 48 36 46 40 36 37 34 33 38 42 39 39 36 36 37 30 29 18 12 17 18
32 28 38 25 36 44 22 53 44 60 56 53 52 49 33 45 44 40 35 36 38 79 86 59 56 51 52 47 44 43 40 39 32 27 28 26 27 39 44 44 41 30 30 39 42 37 41 43 44
18 35 33 30 32 22 27 57 34 69 56 46 52 54 40 39 41 55 52 38 40 73 85 89 85 67 44 54 41 47 44 47 41 32 29 27 28 25 39 43 40 33 27 30 37 39 42 43 43
19 24 28 42 34 35 29 53 38 49 51 50 53 60 54 54 56 49 53 51 38 58 94 99 81 63 51 74 68 53 55 51 50 45 41 37 37 35 31 39 41 44 40 35 42 45 44 46 48
35 35 39 40 33 44 36 45 41 39 55 45 50 57 52 73 63 68 60 64 61 55 95 101 82 58 66 72 66 72 67 63 55 57 47 45 43 39 36 33 34 41 40 44 52 54 59 64 65
44 46 45 41 39 31 31 51 40 35 39 66 55 59 62 64 75 77 79 73 82 72 83 95 96 90 66 74 81 101 80 72 65 57 57 46 46 45 39 35 32 34 45 51 46 44 37 45 49
41 38 34 40 36 41 34 40 27 22 48 67 70 76 69 77 86 91 88 79 84 77 75 82 94 86 74 77 75 84 85 71 59 59 61 57 50 48 46 42 40 39 43 47 46 48 46 50 54
42 37 42 39 29 27 21 29 31 15 31 33 65 68 72 79 61 92 96 89 72 89 75 94 80 78 83 82 73 66 76 64 63 58 51 55 50 50 46 43 39 40 47 48 48 49 41 36 46
31 26 22 27 27 28 32 20 20 12 36 28 40 53 76 82 80 63 69 70 86 89 95 85 86 82 79 75 73 71 69 66 56 55 60 59 61 54 52 49 46 46 47 39 42 39 35 37 36
33 13 17 22 21 22 31 27 31 26 33 34 27 42 74 82 80 77 79 77 47 92 98 95 92 86 84 79 72 72 64 59 59 53 58 54 46 44 42 41 43 36 32 27 26 30 31 29 31
44 18 9 6 9 20 28 30 26 19 31 35 32 52 67 73 84 91 86 82 56 95 108 103 96 88 88 79 71 65 62 69 64 57 56 46 41 37 33 34 33 30 23 22 23 26 24 24 27
6 15 17 11 11 20 31 32 26 40 36 45 59 65 83 75 78 97 98 83 67 80 97 100 93 87 82 75 76 68 58 68 54 46 36 39 35 33 35 35 29 24 20 20 17 17 20 25 28
9 11 13 10 12 8 8 44 31 41 43 38 42 62 61 49 87 89 104 82 76 72 96 99 95 81 84 81 72 73 62 53 47 46 44 42 40 40 35 31 27 23 24 20 22 27 20 11 15
20 6 10 5 10 9 15 20 21 2 15 29 45 44 66 79 91 92 91 90 83 75 85 98 92 87 81 73 65 64 60 53 56 53 47 41 39 34 33 27 21 23 21 15 10 4 1 4 5
7 9 11 5 7 9 15 20 12 8 11 24 45 59 44 33 68 87 95 93 86 81 77 100 96 84 73 68 65 68 66 65 55 53 48 43 38 30 25 20 16 12 8 7 7 10 10 16 19
6 7 9 8 12 11 10 14 5 13 12 29 42 41 47 42 41 40 56 81 86 88 87 93 91 83 74 71 74 75 69 64 64 56 50 45 44 38 32 27 20 12 7 9 13 16 19 22 24
Wind_Direction_850mb
266 227 301 326 34 118 259 259 250 274 256 184 217 92 133 109 147 230 140 187 176 160 160 162 160 155 151 149 145 137 130 125 120 124 126 128 131 131 129 126 122 121 121 121 124 127 129 127 125
262 249 260 250 139 263 268 253 257 267 177 150 106 114 88 115 155 173 165 187 177 162 162 163 162 158 155 153 151 145 138 131 123 124 129 131 133 134 131 128 126 124 123 125 130 133 134 131 127
253 255 251 162 206 219 248 262 291 307 156 174 101 113 139 160 155 150 197 171 174 165 162 163 163 160 159 157 156 153 146 138 129 127 133 135 135 134 134 132 128 126 127 131 137 139 138 135 130
260 236 251 150 242 252 235 262 270 285 253 156 96 98 119 140 148 188 188 180 172 166 164 165 164 163 163 161 161 160 154 147 138 132 136 142 140 138 138 136 131 129 131 135 140 141 140 139 135
253 261 224 214 242 256 266 267 282 296 292 131 148 138 138 141 163 176 174 181 173 165 166 166 165 166 165 165 167 165 161 157 149 140 141 149 149 145 145 143 137 134 134 137 143 147 147 144 142
275 227 230 223 246 260 264 268 274 271 281 185 135 119 145 153 156 164 173 175 173 163 166 167 166 168 167 168 170 169 167 165 160 152 148 155 160 158 155 151 147 144 142 143 151 157 160 161 161
210 311 226 232 251 262 258 266 259 266 276 232 158 120 141 149 159 165 168 165 166 166 166 168 168 169 169 170 171 172 172 170 170 165 159 163 169 170 166 164 161 161 163 162 167 177 186 193 198
241 236 261 257 249 256 269 278 279 293 277 198 168 144 156 155 159 155 157 173 164 167 172 169 170 172 172 171 172 172 174 175 176 175 172 171 176 181 180 180 178 178 182 186 190 197 206 216 224
236 231 246 237 244 255 276 287 285 303 329 31 99 150 156 153 157 152 163 171 174 177 180 176 174 174 176 174 173 176 179 182 183 184 184 185 185 189 191 191 191 194 198 204 211 219 227 234 242
203 224 238 250 255 258 270 277 279 297 300 258 109 126 143 154 160 160 166 172 181 183 186 183 180 178 178 178 179 179 183 188 191 193 194 192 191 196 199 201 202 207 212 217 226 233 241 249 257
222 233 245 254 250 258 265 277 284 301 310 229 149 143 153 161 166 166 170 178 191 184 182 185 184 183 183 184 184 184 187 190 195 199 200 198 198 198 202 209 212 218 229 238 245 251 258 265 271
245 239 240 255 260 269 269 288 293 304 274 262 220 173 168 169 173 174 176 180 191 194 194 189 188 187 188 186 190 190 191 193 198 200 201 202 204 199 204 212 217 220 247 262 265 264 280 260 273
258 241 250 248 248 258 271 264 269 291 283 274 218 264 182 181 179 184 184 186 192 196 197 195 191 188 190 189 193 195 196 199 202 204 201 204 206 207 193 212 225 225 241 262 312 281 290 297 276
272 270 259 245 247 245 247 260 269 274 274 264 261 196 165 181 180 191 185 194 189 195 203 200 193 191 195 194 196 205 201 202 204 207 207 206 209 208 204 210 231 232 245 253 270 290 291 283 272
259 271 275 256 265 254 259 255 242 252 265 267 249 216 195 202 184 191 189 198 196 194 193 194 196 195 201 197 205 208 214 202 201 203 199 207 211 206 202 213 223 229 243 257 269 265 262 270 255
281 270 254 255 254 259 248 250 249 254 260 255 254 254 222 200 218 223 223 222 200 197 182 196 210 189 195 197 205 216 214 205 208 210 199 193 204 211 211 211 226 230 230 231 239 250 254 261 263
253 255 261 265 245 247 228 256 241 239 241 244 249 248 242 230 214 214 217 221 238 201 192 186 194 183 191 203 207 214 214 208 216 223 225 217 225 228 225 221 225 228 234 237 243 247 249 250 255
238 253 253 256 263 234 243 257 246 218 236 246 250 246 247 244 237 233 225 222 239 215 192 185 199 220 210 208 205 206 211 211 211 213 225 232 234 234 240 241 232 221 227 239 242 243 243 249 250
263 265 254 253 242 243 248 254 243 222 219 233 231 230 238 235 238 242 240 235 238 212 196 199 201 213 202 204 212 207 208 206 209 212 214 231 238 240 241 240 247 233 227 244 248 255 260 263 263
235 245 258 272 273 278 268 253 249 234 223 216 218 221 233 239 235 236 238 234 228 224 201 199 207 204 203 207 212 213 210 208 211 212 214 220 236 244 248 249 244 244 242 246 258 266 268 276 270
242 246 249 245 254 268 266 274 272 264 229 211 212 213 223 226 234 234 225 223 225 215 195 198 189 208 208 197 206 209 215 218 218 219 217 218 227 238 241 246 258 263 253 249 249 250 249 262 272
247 238 249 262 260 247 251 262 262 249 278 246 205 201 215 222 239 220 218 224 228 217 196 189 190 196 204 206 209 205 204 204 212 218 218 216 225 229 236 240 258 259 261 253 253 276 272 273 274
281 291 332 309 293 293 249 254 264 252 233 262 197 206 214 221 227 218 211 221 233 219 209 201 194 197 205 211 214 212 210 208 207 212 214 220 220 224 232 238 248 254 260 254 258 263 274 270 271
269 271 313 325 297 273 251 234 251 243 247 268 252 224 209 220 218 217 224 228 243 217 208 206 202 203 203 206 209 211 204 207 208 201 205 211 216 225 231 243 251 246 253 253 253 256 259 270 273
279 215 210 285 268 259 256 240 228 220 225 215 238 232 230 218 214 214 217 216 228 211 203 200 200 205 208 205 209 208 204 214 216 215 221 229 233 224 228 235 237 232 229 233 249 255 264 277 282
232 325 232 212 222 264 259 260 234 246 244 239 238 238 236 227 213 203 207 215 215 209 200 197 198 200 206 205 205 203 208 216 218 216 201 203 198 195 210 213 216 227 237 259 257 264 270 266 276
307 255 297 179 194 258 277 270 240 232 236 237 255 257 263 253 216 203 205 207 209 205 200 197 196 201 205 207 210 201 205 204 192 188 188 183 181 191 204 208 211 223 247 243 256 273 283 298 295
200 151 313 4 182 226 235 270 247 290 318 266 240 249 253 263 208 199 202 205 212 207 201 198 197 201 199 196 195 189 187 181 184 189 184 185 186 191 198 198 210 230 245 248 243 212 352 283 296
162 151 180 192 161 204 261 253 190 261 313 317 294 235 239 208 184 193 199 204 204 209 203 195 191 188 178 177 181 186 186 189 185 180 182 175 172 173 166 160 160 158 137 138 185 218 225 270 278
164 323 204 179 184 208 245 270 353 295 347 315 274 238 115 100 137 149 180 196 195 189 170 165 168 173 172 175 173 170 170 175 174 173 162 157 150 148 147 151 159 168 202 244 258 277 287 285 289